Simultaneous Nadir Overpasses (SNOs) Predictions

Prediction of SNOs between AQUA and METOP-B Satellite Orbit:

Table of predicted SNOs for the next 14.0 days since TLE Epoch: 10/10/2020
Index Date (AQUA) Time (AQUA) Lat,Lon (AQUA) SZA (AQUA ) Date (METOP-B) Time (METOP-B) Lat,Lon (METOP-B) SZA (METOP-B ) Distance(km) Time Diff (sec)
1 10/12/2020 20:52:12 -73.80, 41.27 98.46 10/12/2020 20:51:18 -73.80, 41.35 98.46 2.45 54
2 10/12/2020 21:41:40 73.86,-151.22 81.61 10/12/2020 21:41:56 73.86,-151.17 81.62 1.58 16
3 10/12/2020 22:31:19 -74.52, 14.89 97.69 10/12/2020 22:32:25 -74.52, 17.81 97.73 86.68 66
4 10/15/2020 16:26:26 -73.81, 107.69 97.41 10/15/2020 16:25:42 -73.80, 107.74 97.42 2.08 44
5 10/15/2020 17:15:54 73.87, -84.80 82.67 10/15/2020 17:16:20 73.86, -84.78 82.65 1.96 26
6 10/18/2020 12:00:38 -73.77, 174.22 96.43 10/18/2020 12:00:05 -73.79, 174.13 96.40 3.25 33
7 10/18/2020 12:50:06 73.84, -18.28 83.66 10/18/2020 12:50:43 73.85, -18.40 83.67 3.62 37
8 10/21/2020 07:34:52 -73.79,-119.39 95.40 10/21/2020 07:34:29 -73.78,-119.48 95.41 3.15 23
9 10/21/2020 08:24:20 73.86, 48.11 84.69 10/21/2020 08:25:06 73.88, 48.10 84.71 2.75 46
10 10/24/2020 02:19:29 73.26, 140.54 85.04 10/24/2020 02:18:22 73.19, 138.26 85.00 73.61 67
